This is the latest recevied weather packets stored in our database for station/object JO1YDG-13. If no packets are shown the sender has not sent any weather packets the latest 10 day(s).
| Time | Temp. | Humidity | Pressure | Rain* | Wind** | Luminosity | Snow |
|---|---|---|---|---|---|---|---|
| 1777836921 | 15.56° C | 99% | 969.9 hPa | 3.81 mm | - | - | - |
| 1777836621 | 15.56° C | 99% | 969.9 hPa | 4.57 mm | - | - | - |
| 1777836320 | 15.56° C | 99% | 970.2 hPa | 6.1 mm | - | - | - |
| 1777836022 | 15.56° C | 99% | 970.2 hPa | 6.86 mm | - | - | - |
| 1777835722 | 15.56° C | 99% | 970.2 hPa | 7.37 mm | - | - | - |
| 1777835422 | 15.56° C | 99% | 970.6 hPa | 7.37 mm | - | - | - |
| 1777835121 | 15.56° C | 99% | 970.6 hPa | 7.62 mm | - | - | - |
| 1777834821 | 15.56° C | 99% | 970.3 hPa | 7.37 mm | - | - | - |
| 1777834521 | 15.56° C | 99% | 970.3 hPa | 7.37 mm | - | - | - |
| 1777834221 | 15.56° C | 99% | 971 hPa | 6.86 mm | - | - | - |
| 1777833921 | 15.56° C | 99% | 971 hPa | 6.6 mm | - | - | - |
| 1777833621 | 15.56° C | 99% | 971 hPa | 6.6 mm | - | - | - |
| 1777833322 | 15.56° C | 99% | 971.4 hPa | 6.35 mm | - | - | - |
| 1777833022 | 15.56° C | 99% | 971.4 hPa | 5.84 mm | - | - | - |
| 1777832722 | 15.56° C | 99% | 971.5 hPa | 4.57 mm | - | - | - |
| 1777832422 | 15.56° C | 99% | 971.5 hPa | 4.06 mm | - | - | - |
| 1777832122 | 15.56° C | 99% | 971.5 hPa | 3.81 mm | - | - | - |
| 1777831821 | 15.56° C | 98% | 971.9 hPa | 3.56 mm | - | - | - |
| 1777831521 | 15.56° C | 98% | 971.9 hPa | 3.56 mm | - | - | - |
| 1777831221 | 15.56° C | 98% | 972.1 hPa | 3.56 mm | - | - | - |
| 1777830921 | 15.56° C | 98% | 972.1 hPa | 3.56 mm | - | - | - |
| 1777830622 | 15.56° C | 98% | 972.5 hPa | 3.05 mm | - | - | - |
| 1777830322 | 15.56° C | 98% | 972.5 hPa | 3.05 mm | - | - | - |
| 1777830022 | 15.56° C | 97% | 972.5 hPa | 2.79 mm | - | - | - |
| 1777829722 | 15.56° C | 97% | 972.6 hPa | 2.54 mm | - | - | - |
* Rain latest hour (hover to see other rain measurements)
** Current wind speed in m/s (hover to see current wind gust speed)